Weather History for Clarksville, TN

Change the Weather History Date:

Saturday, November 19, 2011

  Actual Average Record
Temperature  
Mean Temperature 55 °F -  
Max Temperature 68 °F - 78 °F (1953)
Min Temperature 41 °F - 18 °F (1951)
Degree Days  
Heating Degree Days 10    
Month to date heating degree days 244  
Since 1 July heating degree days 517  
Cooling Degree Days 0    
Month to date cooling degree days 4  
Growing Degree Days 4 (Base 50)    
Moisture  
Dew Point 42 °F    
Average Humidity 62    
Maximum Humidity 78    
Minimum Humidity 45    
Precipitation  
Precipitation 0.00 in - 4.21 in (1948)
Month to date precipitation 4.67  
Sea Level Pressure  
Sea Level Pressure 30.12 in    
Wind  
Wind Speed 12 mph (South)    
Max Wind Speed 26 mph    
Max Gust Speed 35 mph    
Visibility 10 miles    
Events      
T = Trace of Precipitation, MM = Missing Value Source: NWS Daily Summary

Daily Weather History Graph

Daily Weather History Graph

Search for Another Location

Airport:

Trip Planner

Search our weather history database for the weather conditions in past years. The results will help you decide how hot, cold, wet, or windy it might be!

Date:

Astronomy

Nov. 19, 2011 Rise Set
Actual Time 6:31 AM CST 4:38 PM CST
Civil Twilight 6:03 AM CST 5:06 PM CST
Nautical Twilight 5:32 AM CST 5:37 PM CST
Astronomical Twilight 5:01 AM CST 6:08 PM CST
Moon 12:01 AM CST (11/19) 12:47 PM CST (11/19)
Length of Visible Light 11h 02m
Length of Day
10h 07m
Last Quarter, 38% of the Moon is Illuminated
Nov 19
Last Quarter
Nov 25
New
Dec 2
First Quarter
Dec 10
Full
Dec 17
Last Quarter

Hourly Weather History & Observations

Time (CST) Temp. Windchill Dew Point Humidity Pressure Visibility Wind Dir Wind Speed Gust Speed Precip Events Conditions
12:52 AM 46.9 °F - 28.9 °F 50% 30.18 in 10.0 mi South 9.2 mph - N/A   Clear
1:52 AM 46.0 °F 41.9 °F 28.0 °F 50% 30.18 in 10.0 mi South 8.1 mph - N/A   Clear
2:52 AM 46.0 °F 41.9 °F 27.0 °F 47% 30.17 in 10.0 mi South 8.1 mph - N/A   Clear
3:52 AM 45.0 °F 41.2 °F 27.0 °F 49% 30.17 in 10.0 mi South 6.9 mph - N/A   Clear
5:52 AM 42.1 °F 39.2 °F 28.0 °F 58% 30.18 in 10.0 mi SSE 4.6 mph - N/A   Clear
6:52 AM 43.0 °F 38.8 °F 28.9 °F 58% 30.17 in 10.0 mi SSE 6.9 mph - N/A   Clear
7:52 AM 46.9 °F - 33.1 °F 59% 30.17 in 10.0 mi SSE 6.9 mph - N/A   Clear
8:52 AM 53.1 °F - 37.9 °F 57% 30.16 in 10.0 mi South 9.2 mph - N/A   Clear
9:52 AM 59.0 °F - 44.1 °F 58% 30.14 in 10.0 mi South 23.0 mph 31.1 mph N/A   Clear
10:52 AM 62.1 °F - 46.0 °F 56% 30.12 in 10.0 mi SSW 18.4 mph 25.3 mph N/A   Scattered Clouds
11:52 AM 64.9 °F - 46.0 °F 50% 30.08 in 10.0 mi SSW 18.4 mph 25.3 mph N/A   Clear
12:52 PM 64.9 °F - 46.0 °F 50% 30.07 in 10.0 mi SSW 18.4 mph 27.6 mph N/A   Clear
1:52 PM 66.9 °F - 48.0 °F 51% 30.04 in 10.0 mi SSW 16.1 mph 31.1 mph N/A   Partly Cloudy
3:52 PM 64.9 °F - 50.0 °F 58% 30.04 in 10.0 mi South 16.1 mph 23.0 mph N/A   Scattered Clouds
4:52 PM 63.0 °F - 50.0 °F 63% 30.04 in 10.0 mi South 18.4 mph 25.3 mph N/A   Clear
5:52 PM 62.1 °F - 51.1 °F 67% 30.05 in 10.0 mi South 11.5 mph 25.3 mph N/A   Clear
6:52 PM 61.0 °F - 51.1 °F 70% 30.08 in 10.0 mi South 12.7 mph - N/A   Clear
7:52 PM 60.1 °F - 51.1 °F 72% 30.10 in 10.0 mi South 10.4 mph - N/A   Scattered Clouds
8:52 PM 60.1 °F - 52.0 °F 75% 30.11 in 10.0 mi South 12.7 mph - N/A   Clear
9:52 PM 61.0 °F - 53.1 °F 75% 30.11 in 10.0 mi South 13.8 mph - N/A   Scattered Clouds
10:52 PM 61.0 °F - 53.1 °F 75% 30.12 in 10.0 mi South 15.0 mph - N/A   Overcast
11:52 PM 62.1 °F - 54.0 °F 75% 30.12 in 10.0 mi South 13.8 mph - N/A   Overcast